Regional Weather Roundup
Issued by NWS

Home | Current Version | Previous Version | Graphics & Text | Print | Product List | Glossary On
Versions: 1 2 3 4 5 6 7 8 9 10 11 12 13 14 15 16 17 18 19 20 21 22 23 24 25 26 27 28 29 30 31 32 33 34 35 36 37 38 39 40 41 42 43 44 45 46 47 48 49 50
000
ASUS45 KBOI 220310
RWRID
WEATHER ROUNDUP FOR IDAHO
NATIONAL WEATHER SERVICE BOISE ID
900 PM MDT THU AUG 21 2014

NOTE: "FAIR" INDICATES FEW OR NO CLOUDS BELOW 12000 FEET
WITH NO SIGNIFICANT WEATHER AND/OR OBSTRUCTIONS TO VISIBILITY

IDZ012-014-220400-
SOUTHWEST IDAHO


CITY           SKY/WX    TMP DP  RH WIND       PRES   REMARKS
BOISE          MOCLDY    74  35  24 SW5       29.89R
CALDWELL       MOCLDY    73  43  33 SW5       29.88S
MOUNTAIN HOME  MOCLDY    76  52  43 E8        29.89R
$$

IDZ016-017-220400-
SOUTHCENTRAL IDAHO


CITY           SKY/WX    TMP DP  RH WIND       PRES   REMARKS
BURLEY         CLOUDY    61  53  75 S13       30.01S
JEROME         MOCLDY    62  54  74 NE5       29.97F
TWIN FALLS     CLOUDY    63  54  72 SE18      29.96F
$$

IDZ019>023-220400-
SOUTHEAST IDAHO


CITY           SKY/WX    TMP DP  RH WIND       PRES   REMARKS
IDAHO FALLS    CLOUDY    62  51  67 NW24G30   30.08R
POCATELLO      MOCLDY    66  46  48 S20G28    30.07R
REXBURG        CLOUDY    58  50  75 N8        30.09R THUNDER
$$

IDZ006-010-011-018-031-032-220400-
CENTRAL IDAHO MOUNTAINS


CITY           SKY/WX    TMP DP  RH WIND       PRES   REMARKS
MCCALL         MOCLDY    63  33  32 CALM      29.99S
HAILEY         MOCLDY    61  54  77 E5        30.09R
STANLEY          N/A     57  39  51 CALM      30.08R
SALMON         CLOUDY    63  54  72 NE3       29.97R
CHALLIS        PTCLDY    66  44  45 E10       30.00R
$$

IDZ002-004-006-007-026-220400-
NORTHERN IDAHO


CITY           SKY/WX    TMP DP  RH WIND       PRES   REMARKS
LEWISTON       MOCLDY    77  45  32 W8        29.84R
LOWELL           N/A     69  58  67 CALM      29.83R
COEUR D`ALENE  CLOUDY    63  54  72 N20       29.94R
MULLAN PASS    MOCLDY    51  46  83 SE9       30.09S
$$



USA.gov is the U.S. government's official web portal to all federal, state and local government web resources and services.